sat.trackr.live / text

‹ back to catalog

STARLINK-34314

NORAD 64146 · 2025-112A

PAYLOAD ACTIVE UNKNOWN

§ Identity

Operator
Country
US
Launch date
2025-05-27
Launch site
AFWTR
Launch vehicle
Mass (kg)
RCS (m²)

Purposes: comms

External: N2YO · Heavens-Above · Gunter

§ Orbital elements

Epoch: 2026-09-20T21:08:11.994432Z

Period
93.91 min
Inclination
97.2830°
Eccentricity
0.0000550
Mean motion
15.33455031 rev/d
Perigee alt
465.1 km
Apogee alt
465.9 km
Semi-major
6,843.7 km
B*
4.3770e-4
RAAN
310.8940°
Arg perigee
123.0931°
Mean anomaly
237.0365°
Rev number
7,280

§ Raw data

STARLINK-343141 64146U 25112A   26263.88069438  .00014086  00000+0  43770-3 0  99992 64146  97.2830 310.8940 0000550 123.0931 237.0365 15.33455031 72809

JSON: /api/v1/satellites/64146 · /tle

For live sub-satellite position, see the globe view (requires WebGL).

§ Visibility from observer

Set your observer location to see the next 7 days of passes ≥ 10°. The values pass through the URL so the page stays shareable.

No JS? Fill the form by hand. The geolocation button needs JavaScript.